Location: Ash Observatory
(39.7321°N, 75.2004°W)
Time: 18:18:59
(UTC-04:00)

ISS - Pass Details

Date: 27 March 2019
Orbit: 408 x 410 km, 51.6° (Epoch: 26 April)

Event Time Altitude Azimuth Distance (km) Brightness Sun altitude
Rises 19:42:08 0° 268° (W) 2,331 2.3 -5.1°
Reaches altitude 10° 19:44:35 10° 286° (WNW) 1,472 0.8 -5.6°
Maximum altitude 19:47:09 21° 337° (NNW) 995 -1.4 -6.1°
Drops below altitude 10° 19:49:43 10° 28° (NNE) 1,474 -1.2 -6.6°
Sets 19:52:10 0° 46° (NE) 2,337 -0.3 -7.0°
